| time (UTC) | temp F | wind direction | speed MPH | gust MPH | rain 1hr in | rain 24hr in | rain mn in | humidity % | barometer mb |
| 20260507033121 | 45 | 357 | 0.0 | 0.0 | 0.00 | 0.00 | 0.00 | 78 | 1012.1 |
| 20260507032441 | 45 | 357 | 0.0 | 0.0 | 0.00 | 0.00 | 0.00 | 78 | 1012.3 |
| 20260507031802 | 0 | 357 | 0.0 | 0.0 | 0.00 | 0.00 | 0.00 | ||
| 20260507031012 | 45 | 358 | 0.0 | 0.0 | 0.00 | 0.00 | 0.41 | 77 | 1012.2 |
| 20260507030331 | 45 | 357 | 0.0 | 0.0 | 0.00 | 0.00 | 0.41 | 76 | 1012.3 |
| 20260507025652 | 45 | 357 | 0.0 | 0.0 | 0.00 | 0.00 | 0.41 | 75 | 1012.3 |
| 20260507025011 | 45 | 356 | 0.0 | 0.0 | 0.00 | 0.00 | 0.41 | 73 | 1012.4 |
| 20260507024332 | 0 | 355 | 0.0 | 0.0 | 0.00 | 0.00 | 0.41 | ||
| 20260507023432 | 45 | 357 | 0.0 | 0.0 | 0.00 | 0.00 | 0.41 | 72 | 1012.2 |
| 20260507022752 | 45 | 359 | 0.0 | 0.0 | 0.00 | 0.00 | 0.41 | 73 | 1012.1 |
| 20260507022113 | 0 | 357 | 0.0 | 0.0 | 0.00 | 0.00 | 0.41 | ||
| 20260507021324 | 0 | 358 | 0.0 | 0.0 | 0.00 | 0.00 | 0.41 | ||
| 20260507020532 | 46 | 356 | 0.0 | 0.0 | 0.00 | 0.00 | 0.41 | 73 | 1012.1 |
| 20260507015853 | 46 | 359 | 0.0 | 0.0 | 0.00 | 0.00 | 0.41 | 73 | 1012.3 |
| 20260507015212 | 45 | 357 | 0.0 | 3.0 | 0.00 | 0.00 | 0.41 | 71 | 1012.3 |
| 20260507014532 | 45 | 356 | 0.0 | 4.0 | 0.00 | 0.00 | 0.41 | 72 | 1012.5 |
| 20260507013853 | 0 | 358 | 0.0 | 0.0 | 0.00 | 0.00 | 0.41 | ||
| 20260507012843 | 45 | 358 | 0.0 | 0.0 | 0.00 | 0.00 | 0.41 | 73 | 1012.4 |
| 20260507012205 | 45 | 358 | 0.0 | 3.0 | 0.00 | 0.00 | 0.41 | 75 | 1012.3 |
| 20260507011523 | 45 | 357 | 0.0 | 3.0 | 0.00 | 0.00 | 0.41 | 74 | 1012.3 |
| 20260507010205 | 44 | 357 | 0.0 | 0.0 | 0.00 | 0.00 | 0.41 | 76 | 1012.1 |
| 20260507005525 | 45 | 359 | 0.0 | 0.0 | 0.00 | 0.00 | 0.41 | 78 | 1011.9 |
| 20260507004845 | 45 | 359 | 0.0 | 0.0 | 0.00 | 0.00 | 0.41 | 79 | 1011.9 |
| 20260507004205 | 45 | 358 | 0.0 | 0.0 | 0.00 | 0.00 | 0.41 | 77 | 1011.9 |
| 20260507003526 | 45 | 357 | 0.0 | 0.0 | 0.00 | 0.00 | 0.41 | 78 | 1011.8 |
| 20260507002846 | 0 | 357 | 0.0 | 0.0 | 0.00 | 0.00 | 0.41 | ||
| 20260507001941 | 0 | 356 | 0.0 | 0.0 | 0.00 | 0.00 | 0.41 | ||
| 20260507001153 | 0 | 358 | 0.0 | 0.0 | 0.00 | 0.00 | 0.41 | ||
| 20260507000405 | 45 | 357 | 0.0 | 0.0 | 0.00 | 0.00 | 0.41 | 78 | 1011.3 |
| 20260506235724 | 44 | 358 | 0.0 | 0.0 | 0.00 | 0.00 | 0.41 | 79 | 1011.2 |
| 20260506235044 | 0 | 357 | 0.0 | 0.0 | 0.00 | 0.00 | 0.41 | ||
| 20260506234142 | 44 | 359 | 0.0 | 0.0 | 0.00 | 0.00 | 0.41 | 78 | 1011.3 |
| 20260506233500 | 44 | 357 | 0.0 | 0.0 | 0.00 | 0.00 | 0.41 | 79 | 1011.2 |
| 20260506232710 | 44 | 358 | 0.0 | 0.0 | 0.00 | 0.00 | 0.41 | 77 | 1011.2 |
| 20260506231848 | 44 | 357 | 0.0 | 0.0 | 0.00 | 0.00 | 0.41 | 79 | 1011.3 |
| 20260506231209 | 44 | 355 | 0.0 | 0.0 | 0.00 | 0.00 | 0.41 | 78 | 1011.1 |
| 20260506230528 | 45 | 357 | 0.0 | 0.0 | 0.00 | 0.00 | 0.41 | 78 | 1011.2 |
| 20260506225848 | 46 | 357 | 0.0 | 0.0 | 0.00 | 0.00 | 0.41 | 77 | 1011.2 |
| 20260506225209 | 45 | 355 | 0.0 | 0.0 | 0.00 | 0.00 | 0.41 | 78 | 1011.1 |
| 20260506224528 | 45 | 358 | 0.0 | 5.0 | 0.00 | 0.00 | 0.41 | 78 | 1011.1 |
| 20260506223848 | 46 | 358 | 0.0 | 4.0 | 0.00 | 0.00 | 0.41 | 79 | 1011.1 |
| 20260506223208 | 45 | 357 | 0.0 | 5.0 | 0.00 | 0.00 | 0.41 | 80 | 1011.1 |
| 20260506222529 | 0 | 357 | 0.0 | 3.0 | 0.00 | 0.00 | 0.41 | ||
| 20260506221738 | 0 | 355 | 0.0 | 4.0 | 0.00 | 0.00 | 0.41 | ||
| 20260506220948 | 45 | 357 | 0.0 | 7.0 | 0.00 | 0.00 | 0.41 | 77 | 1010.5 |
| 20260506220309 | 0 | 356 | 2.0 | 9.0 | 0.00 | 0.00 | 0.41 | ||
| 20260506215518 | 44 | 354 | 3.0 | 9.0 | 0.00 | 0.00 | 0.41 | 80 | 1010.4 |
| 20260506214837 | 45 | 358 | 0.0 | 8.0 | 0.00 | 0.00 | 0.41 | 82 | 1010.4 |
| 20260506214157 | 44 | 359 | 3.0 | 10.0 | 0.00 | 0.00 | 0.41 | 82 | 1010.4 |
| 20260506213518 | 44 | 357 | 5.0 | 10.0 | 0.00 | 0.00 | 0.41 | 83 | 1010.3 |
| 20260506212839 | 0 | 356 | 5.0 | 4.0 | 0.00 | 0.00 | 0.41 | ||
| 20260506212046 | 0 | 354 | 7.0 | 10.0 | 0.00 | 0.00 | 0.41 | ||
| 20260506211256 | 45 | 356 | 7.0 | 14.0 | 0.00 | 0.00 | 0.41 | 85 | 1010.0 |
| 20260506210616 | 45 | 357 | 7.0 | 12.0 | 0.00 | 0.00 | 0.41 | 85 | 1009.9 |
| 20260506205936 | 47 | 357 | 5.0 | 16.0 | 0.00 | 0.00 | 0.41 | 84 | 1009.8 |
| 20260506205256 | 47 | 355 | 9.0 | 16.0 | 0.00 | 0.00 | 0.41 | 83 | 1009.8 |
| 20260506204617 | 48 | 356 | 8.0 | 13.0 | 0.00 | 0.00 | 0.41 | 83 | 1009.5 |
| 20260506203937 | 48 | 357 | 6.0 | 13.0 | 0.00 | 0.00 | 0.41 | 83 | 1009.4 |
| 20260506203257 | 0 | 357 | 8.0 | 4.0 | 0.00 | 0.00 | 0.41 | ||
| 20260506202509 | 49 | 357 | 7.0 | 16.0 | 0.00 | 0.00 | 0.41 | 83 | 1009.7 |
| 20260506201829 | 49 | 355 | 7.0 | 11.0 | 0.00 | 0.00 | 0.41 | 81 | 1009.6 |
| 20260506201149 | 0 | 357 | 6.0 | 6.0 | 0.00 | 0.00 | 0.41 | ||
| 20260506200400 | 50 | 357 | 4.0 | 4.0 | 0.00 | 0.00 | 0.41 | 77 | 1009.4 |
| 20260506195604 | 50 | 356 | 4.0 | 11.0 | 0.00 | 0.00 | 0.41 | 78 | 1009.3 |
| 20260506194923 | 51 | 357 | 4.0 | 10.0 | 0.00 | 0.00 | 0.41 | 77 | 1009.3 |
| 20260506194242 | 52 | 356 | 5.0 | 10.0 | 0.00 | 0.00 | 0.41 | 72 | 1009.2 |
| 20260506193603 | 0 | 356 | 7.0 | 9.0 | 0.00 | 0.00 | 0.41 | ||
| 20260506192813 | 52 | 356 | 6.0 | 10.0 | 0.00 | 0.00 | 0.41 | 67 | 1009.2 |
| 20260506192132 | 52 | 356 | 6.0 | 10.0 | 0.00 | 0.00 | 0.41 | 66 | 1009.1 |
| 20260506191452 | 54 | 357 | 3.0 | 8.0 | 0.00 | 0.00 | 0.41 | 63 | 1009.1 |
| 20260506190812 | 52 | 358 | 3.0 | 7.0 | 0.00 | 0.00 | 0.41 | 67 | 1009.1 |
| 20260506190132 | 0 | 357 | 2.0 | 4.0 | 0.00 | 0.00 | 0.41 | ||
| 20260506185259 | 0 | 358 | 4.0 | 6.0 | 0.00 | 0.00 | 0.41 | ||
| 20260506184508 | 54 | 359 | 1.0 | 5.0 | 0.00 | 0.00 | 0.41 | 65 | 1008.9 |
| 20260506183829 | 0 | 357 | 3.0 | 5.0 | 0.00 | 0.00 | 0.41 | ||
| 20260506183041 | 54 | 359 | 2.0 | 4.0 | 0.00 | 0.00 | 0.41 | 65 | 1008.9 |
| 20260506182401 | 53 | 357 | 1.0 | 5.0 | 0.00 | 0.00 | 0.41 | 62 | 1008.9 |
| 20260506181721 | 0 | 357 | 2.0 | 4.0 | 0.00 | 0.00 | 0.40 | ||
| 20260506180933 | 0 | 357 | 0.0 | 3.0 | 0.00 | 0.00 | 0.40 | ||
| 20260506175925 | 51 | 357 | 0.0 | 3.0 | 0.00 | 0.00 | 0.40 | 65 | 1009.0 |
| 20260506175241 | 0 | 357 | 0.0 | 0.0 | 0.00 | 0.00 | 0.40 | ||
| 20260506174224 | 0 | 358 | 1.0 | 3.0 | 0.00 | 0.00 | 0.40 | ||
| 20260506173327 | 52 | 355 | 0.0 | 0.0 | 0.00 | 0.00 | 0.40 | 67 | 1008.9 |
| 20260506172647 | 52 | 356 | 0.0 | 0.0 | 0.00 | 0.00 | 0.40 | 57 | 1009.0 |
| 20260506172012 | 52 | 355 | 0.0 | 0.0 | 0.00 | 0.00 | 0.40 | 60 | 1008.9 |
| 20260506171328 | 52 | 356 | 0.0 | 0.0 | 0.00 | 0.00 | 0.40 | 64 | 1009.0 |
| 20260506170647 | 52 | 359 | 0.0 | 0.0 | 0.00 | 0.00 | 0.40 | 68 | 1009.0 |
| 20260506170010 | 50 | 356 | 0.0 | 0.0 | 0.00 | 0.00 | 0.40 | 72 | 1009.0 |
| 20260506165221 | 50 | 357 | 0.0 | 0.0 | 0.00 | 0.00 | 0.40 | 76 | 1009.0 |
| 20260506164541 | 50 | 357 | 0.0 | 3.0 | 0.00 | 0.00 | 0.40 | 73 | 1009.0 |
| 20260506163750 | 50 | 356 | 0.0 | 4.0 | 0.00 | 0.00 | 0.40 | 73 | 1009.0 |
| 20260506163110 | 50 | 358 | 1.0 | 4.0 | 0.00 | 0.00 | 0.40 | 75 | 1008.9 |
| 20260506162430 | 51 | 358 | 0.0 | 3.0 | 0.00 | 0.00 | 0.40 | 74 | 1008.7 |
| 20260506161750 | 50 | 357 | 0.0 | 4.0 | 0.00 | 0.00 | 0.40 | 75 | 1008.6 |
| 20260506160958 | 0 | 354 | 1.0 | 4.0 | 0.00 | 0.00 | 0.40 | ||
| 20260506155839 | 51 | 359 | 0.0 | 3.0 | 0.00 | 0.00 | 0.40 | 77 | 1008.7 |
| 20260506155159 | 50 | 356 | 0.0 | 0.0 | 0.00 | 0.00 | 0.40 | 75 | 1008.7 |
| 20260506154519 | 50 | 357 | 0.0 | 0.0 | 0.00 | 0.00 | 0.40 | 77 | 1008.7 |
| 20260506153838 | 49 | 359 | 0.0 | 0.0 | 0.00 | 0.00 | 0.40 | 78 | 1008.7 |
| 20260506153158 | 49 | 357 | 0.0 | 0.0 | 0.00 | 0.00 | 0.40 | 78 | 1008.6 |
| 20260506152519 | 49 | 358 | 0.0 | 0.0 | 0.00 | 0.00 | 0.40 | 79 | 1008.6 |
| 20260506151838 | 49 | 356 | 0.0 | 4.0 | 0.00 | 0.00 | 0.40 | 78 | 1008.5 |
| 20260506151159 | 49 | 357 | 1.0 | 4.0 | 0.00 | 0.00 | 0.40 | 82 | 1008.5 |
| 20260506150519 | 0 | 357 | 0.0 | 2.0 | 0.00 | 0.00 | 0.40 | ||
| 20260506145620 | 49 | 358 | 0.0 | 0.0 | 0.00 | 0.00 | 0.40 | 83 | 1008.4 |
| 20260506144939 | 48 | 356 | 0.0 | 5.0 | 0.00 | 0.00 | 0.40 | 83 | 1008.3 |
| 20260506144259 | 48 | 355 | 0.0 | 5.0 | 0.00 | 0.00 | 0.40 | 84 | 1008.2 |
| 20260506143620 | 48 | 357 | 0.0 | 4.0 | 0.00 | 0.00 | 0.40 | 83 | 1008.0 |
| 20260506142940 | 48 | 359 | 0.0 | 3.0 | 0.00 | 0.00 | 0.40 | 85 | 1007.9 |
| 20260506142301 | 47 | 360 | 0.0 | 3.0 | 0.00 | 0.00 | 0.40 | 85 | 1008.0 |
| 20260506141622 | 47 | 356 | 0.0 | 3.0 | 0.00 | 0.00 | 0.40 | 83 | 1008.0 |
| 20260506140940 | 48 | 357 | 0.0 | 0.0 | 0.00 | 0.00 | 0.40 | 86 | 1008.1 |
| 20260506140301 | 0 | 357 | 0.0 | 4.0 | 0.00 | 0.00 | 0.40 | ||
| 20260506135507 | 47 | 357 | 0.0 | 0.0 | 0.00 | 0.00 | 0.40 | 84 | 1007.7 |
| 20260506134828 | 0 | 358 | 0.0 | 4.0 | 0.00 | 0.00 | 0.40 | ||
| 20260506133705 | 47 | 358 | 1.0 | 4.0 | 0.00 | 0.00 | 0.40 | 85 | 1007.4 |
| 20260506133025 | 0 | 357 | 1.0 | 4.0 | 0.00 | 0.00 | 0.40 | ||
| 20260506132236 | 47 | 356 | 0.0 | 5.0 | 0.00 | 0.00 | 0.40 | 85 | 1007.3 |
| 20260506131558 | 0 | 359 | 2.0 | 5.0 | 0.00 | 0.00 | 0.40 | ||
| 20260506130807 | 47 | 357 | 0.0 | 2.0 | 0.00 | 0.00 | 0.40 | 85 | 1007.6 |
| 20260506130127 | 47 | 359 | 0.0 | 4.0 | 0.00 | 0.00 | 0.40 | 86 | 1007.5 |
| 20260506125447 | 47 | 357 | 0.0 | 4.0 | 0.00 | 0.00 | 0.40 | 86 | 1007.4 |
| 20260506124807 | 47 | 356 | 0.0 | 4.0 | 0.00 | 0.00 | 0.40 | 86 | 1007.2 |
| 20260506124127 | 47 | 357 | 0.0 | 5.0 | 0.00 | 0.00 | 0.40 | 87 | 1007.2 |
| 20260506123447 | 47 | 357 | 1.0 | 6.0 | 0.00 | 0.00 | 0.40 | 86 | 1007.2 |
| 20260506122807 | 46 | 355 | 3.0 | 7.0 | 0.00 | 0.00 | 0.39 | 85 | 1007.3 |
| 20260506122127 | 47 | 358 | 4.0 | 6.0 | 0.00 | 0.00 | 0.39 | 85 | 1007.3 |
| 20260506121446 | 47 | 356 | 3.0 | 8.0 | 0.00 | 0.00 | 0.39 | 87 | 1007.2 |
| 20260506120808 | 47 | 356 | 2.0 | 8.0 | 0.00 | 0.00 | 0.39 | 89 | 1007.1 |
| 20260506120127 | 47 | 358 | 2.0 | 5.0 | 0.00 | 0.00 | 0.39 | 89 | 1007.0 |
| 20260506115447 | 0 | 357 | 3.0 | 3.0 | 0.00 | 0.00 | 0.39 | ||
| 20260506114659 | 46 | 357 | 6.0 | 9.0 | 0.00 | 0.00 | 0.38 | 89 | 1006.9 |
| 20260506114019 | 46 | 357 | 1.0 | 6.0 | 0.00 | 0.00 | 0.38 | 90 | 1007.0 |
| 20260506113344 | 0 | 357 | 0.0 | 7.0 | 0.00 | 0.00 | 0.38 | ||
| 20260506112550 | 46 | 357 | 4.0 | 9.0 | 0.00 | 0.00 | 0.38 | 90 | 1007.0 |
| 20260506111911 | 0 | 355 | 4.0 | 3.0 | 0.00 | 0.00 | 0.38 | ||
| 20260506111123 | 0 | 358 | 1.0 | 6.0 | 0.00 | 0.00 | 0.37 | ||
| 20260506110334 | 0 | 356 | 2.0 | 6.0 | 0.00 | 0.00 | 0.37 | ||
| 20260506105545 | 46 | 358 | 1.0 | 5.0 | 0.00 | 0.00 | 0.36 | 88 | 1007.2 |
| 20260506104907 | 0 | 357 | 0.0 | 7.0 | 0.00 | 0.00 | 0.36 | ||
| 20260506104116 | 0 | 358 | 3.0 | 8.0 | 0.00 | 0.00 | 0.36 | ||
| 20260506102847 | 46 | 355 | 4.0 | 9.0 | 0.00 | 0.00 | 0.35 | 87 | 1006.8 |
| 20260506102209 | 0 | 355 | 6.0 | 7.0 | 0.00 | 0.00 | 0.35 | ||
| 20260506101419 | 0 | 358 | 4.0 | 6.0 | 0.00 | 0.00 | 0.34 | ||
| 20260506100630 | 46 | 358 | 3.0 | 10.0 | 0.00 | 0.00 | 0.34 | 89 | 1006.7 |
| 20260506095951 | 0 | 355 | 5.0 | 10.0 | 0.00 | 0.00 | 0.34 | ||
| 20260506095200 | 47 | 356 | 4.0 | 10.0 | 0.00 | 0.00 | 0.33 | 89 | 1007.1 |
| 20260506094520 | 47 | 358 | 4.0 | 10.0 | 0.00 | 0.00 | 0.32 | 90 | 1007.2 |
| 20260506093839 | 47 | 357 | 1.0 | 8.0 | 0.00 | 0.00 | 0.32 | 92 | 1007.2 |
| 20260506093159 | 48 | 355 | 2.0 | 8.0 | 0.00 | 0.00 | 0.32 | 93 | 1007.2 |
| 20260506092519 | 48 | 357 | 2.0 | 9.0 | 0.00 | 0.00 | 0.31 | 94 | 1007.2 |
| 20260506091840 | 47 | 359 | 2.0 | 9.0 | 0.00 | 0.00 | 0.30 | 94 | 1006.9 |
| 20260506091200 | 48 | 358 | 1.0 | 7.0 | 0.00 | 0.00 | 0.30 | 94 | 1006.9 |
| 20260506090520 | 48 | 358 | 1.0 | 4.0 | 0.00 | 0.00 | 0.30 | 94 | 1006.8 |
| 20260506085841 | 48 | 358 | 0.0 | 4.0 | 0.00 | 0.00 | 0.28 | 93 | 1006.9 |
| 20260506085200 | 48 | 358 | 0.0 | 4.0 | 0.00 | 0.00 | 0.28 | 93 | 1006.9 |
| 20260506084521 | 48 | 358 | 0.0 | 4.0 | 0.00 | 0.00 | 0.26 | 93 | 1006.8 |
| 20260506083840 | 48 | 358 | 0.0 | 7.0 | 0.00 | 0.00 | 0.26 | 92 | 1006.8 |
| 20260506083200 | 48 | 357 | 4.0 | 3.0 | 0.00 | 0.00 | 0.26 | 93 | 1006.6 |
| 20260506082257 | 48 | 359 | 0.0 | 7.0 | 0.00 | 0.00 | 0.25 | 93 | 1006.7 |
| 20260506081618 | 0 | 358 | 1.0 | 7.0 | 0.00 | 0.00 | 0.24 | ||
| 20260506080827 | 0 | 359 | 0.0 | 7.0 | 0.00 | 0.00 | 0.24 | ||
| 20260506073137 | 0 | 356 | 2.0 | 6.0 | 0.00 | 0.00 | 0.22 | ||
| 20260506072348 | 0 | 359 | 0.0 | 2.0 | 0.00 | 0.00 | 0.22 | ||
| 20260506071443 | 49 | 356 | 1.0 | 5.0 | 0.00 | 0.00 | 0.21 | 95 | 1006.8 |
| 20260506070804 | 49 | 358 | 0.0 | 0.0 | 0.00 | 0.00 | 0.21 | 95 | 1006.9 |
| 20260506070124 | 0 | 358 | 0.0 | 0.0 | 0.00 | 0.00 | 0.20 | ||
| 20260506062433 | 0 | 357 | 0.0 | 0.0 | 0.00 | 0.00 | 0.17 | ||
| 20260506061645 | 0 | 359 | 0.0 | 0.0 | 0.00 | 0.00 | 0.16 | ||
| 20260506060858 | 0 | 358 | 0.0 | 6.0 | 0.00 | 0.00 | 0.16 | ||
| 20260506060107 | 49 | 359 | 1.0 | 6.0 | 0.00 | 0.00 | 0.15 | 95 | 1007.0 |
| 20260506050947 | 49 | 358 | 0.0 | 0.0 | 0.00 | 0.00 | 0.12 | 94 | 1008.1 |
| 20260506050307 | 49 | 358 | 0.0 | 0.0 | 0.00 | 0.00 | 0.11 | 93 | 1008.1 |
| 20260506044719 | 0 | 358 | 0.0 | 0.0 | 0.00 | 0.00 | 0.09 | ||
| 20260506043931 | 50 | 356 | 0.0 | 0.0 | 0.00 | 0.00 | 0.08 | 94 | 1007.9 |
| 20260506043250 | 49 | 356 | 0.0 | 0.0 | 0.00 | 0.00 | 0.08 | 94 | 1007.9 |
| 20260506042346 | 49 | 357 | 0.0 | 0.0 | 0.00 | 0.00 | 0.07 | 94 | 1007.9 |
| 20260506041706 | 49 | 357 | 0.0 | 0.0 | 0.00 | 0.00 | 0.06 | 94 | 1007.9 |
| 20260506041027 | 0 | 358 | 0.0 | 0.0 | 0.00 | 0.00 | 0.05 | ||
| 20260506040236 | 49 | 358 | 0.0 | 0.0 | 0.00 | 0.00 | 0.03 | 93 | 1007.8 |
| 20260506035557 | 0 | 356 | 0.0 | 0.0 | 0.00 | 0.00 | 0.03 | ||
| 20260506034806 | 49 | 357 | 0.0 | 0.0 | 0.00 | 0.00 | 0.03 | 93 | 1007.7 |
| 20260506034126 | 49 | 358 | 0.0 | 0.0 | 0.00 | 0.00 | 0.03 | 93 | 1007.7 |
| 20260506033446 | 50 | 358 | 0.0 | 0.0 | 0.00 | 0.00 | 0.02 | 93 | 1007.7 |